Overview Statistics Trail Chart Weather Telemetry Raw packets
 

This is the latest recevied weather packets stored in our database for station/object DG0LHZ-10. If no packets are shown the sender has not sent any weather packets the latest 10 day(s).

<< 14 15 16 17 18 19 20 >>
Time Temp. Humidity Pressure Rain* Wind** Luminosity Snow
1788015484 31.67° C 35% 1015.1 hPa - - - -
1788014584 31.11° C 35% 1015.1 hPa - - - -
1788013684 31.11° C 34% 1015.1 hPa - - - -
1788011884 30.56° C 35% 1015.2 hPa - - - -
1788010984 30.56° C 37% 1015.3 hPa - - - -
1788010083 30.56° C 37% 1015.4 hPa - - - -
1788009184 30° C 38% 1015.5 hPa - - - -
1788008285 30° C 39% 1015.4 hPa - - - -
1788007384 29.44° C 39% 1015.4 hPa - - - -
1788006487 29.44° C 41% 1015.6 hPa - - - -
1788005585 28.89° C 41% 1015.7 hPa - - - -
1788004684 28.33° C 42% 1015.9 hPa - - - -
1788003792 27.78° C 43% 1016 hPa - - - -
1788002883 27.78° C 43% 1016.2 hPa - - - -
1788001983 27.78° C 45% 1016.2 hPa - - - -
1788001083 27.22° C 45% 1016.3 hPa - - - -
1788000183 26.11° C 47% 1016.5 hPa - - - -
1787999286 25.56° C 48% 1016.4 hPa - - - -
1787998383 25° C 49% 1016.6 hPa - - - -
1787997483 25° C 49% 1016.5 hPa - - - -
1787996584 25° C 50% 1016.6 hPa - - - -
1787995683 24.44° C 52% 1016.7 hPa - - - -
1787994782 23.89° C 53% 1016.6 hPa - - - -
1787993883 22.78° C 54% 1016.6 hPa - - - -
1787992982 22.22° C 54% 1016.6 hPa - - - -

* Rain since midnight (hover to see other rain measurements)
** Current wind speed in m/s (hover to see current wind gust speed)